Location: Ch�risy
(50.2331°N, 2.9131°E)
Time: 19:44:57
(UTC+00:00)

Okean 1-7 Rocket - Pass Details

Date: 17 January 2021
Orbit: 615 x 650 km, 82.5° (Epoch: 27 February)

Event Time Altitude Azimuth Distance (km) Brightness Sun altitude
Rises 18:08:06 0° 171° (S) 2,937 7.1 -17.2°
Reaches altitude 10° 18:10:23 10° 165° (SSE) 2,037 6.2 -17.5°
Maximum altitude 18:14:42 45° 93° (E) 890 3.9 -18.2°
Enters shadow 18:16:16 32° 45° (NE) 1,118 4.4 -18.4°
